Content
SEND FEEDBACK

Daily
Averages
Monthly
Summary
United States of America

CHAUTAUQUA, NEW YORK


Home > North America > United States > New York
Elevation: 1264 feet     Latitude: 42 17N     Longitude: 079 37W

WEATHER
 
SELECT A DAY
Number of Records: 205,184;   Date Range: 12/11/96 - 9/30/14
 
SHARE

PRINT THIS DATA

[ ← Previous Day ]
WEATHER ALMANAC - FEBRUARY 8, 2013
[ Next Day → ]
[ °C ]   °F
Weather ElementAverageHighLow
Temperature25.4 °F37.9 °F (7:53 am)17.6 °F (11:32 pm)
Dewpoint21.3 °F33.8 °F (10:44 am)12.2 °F (11:48 pm)
Humidity84.9 %100 % (2:31 pm)66 % (1:53 am)
Barometer29.95 in30.18 in (11:53 pm)29.75 in (12:18 pm)
Wind Speed12.1 mph21.9 mph (4:50 pm)
Wind Gust28.8 mph (3:53 pm)
Weather ElementAverage
Visibility3.1 mi
Wind DirectionW (267.1 °)

Weather ElementTotal
Precipitation0.36 in
Heating Degree Days37.3 (Base 65)
Averaged from 55 records on February 8, 2013
WEATHER CONDITIONS BREAKOUT
WIND DIRECTION BREAKOUT
WEATHER BY HOUR - FEBRUARY 8, 2013
[ °C ]   °F
Local TimeTemperatureDewpointHumidityBarometerVisibilityWind DirectionWind SpeedGust SpeedPrecipitationEventsConditions
1:53 AM33.1 °F23.0 °F66 %29.96 in10.0 miCalmOvercast
2:53 AM33.1 °F24.1 °F70 %29.93 in10.0 miNorth (360°)3.5 mphOvercast
3:53 AM34.0 °F24.1 °F67 %29.93 in10.0 miNNW (340°)6.9 mphOvercast
4:53 AM32.0 °F25.0 °F75 %29.90 in10.0 miEast (80°)4.6 mphOvercast
5:53 AM34.0 °F26.1 °F73 %29.86 in10.0 miEast (90°)8.1 mphOvercast
6:53 AM37.0 °F28.0 °F70 %29.83 in10.0 miCalm0.00 inOvercast
7:53 AM37.9 °F28.9 °F70 %29.79 in10.0 miVariable6.9 mph0.00 inOvercast
8:53 AM37.9 °F30.9 °F76 %29.77 in10.0 miSouth (170°)11.5 mph21.9 mph0.00 inRainLight Rain
9:53 AM37.9 °F32.0 °F79 %29.77 in10.0 miSouth (170°)12.7 mph21.9 mph0.00 inRainLight Rain
10:44 AM37.4 °F33.8 °F87 %29.76 in4.0 miSSE (160°)5.8 mph0.03 inRainLight Rain
10:53 AM37.9 °F33.1 °F83 %29.78 in6.0 miSE (140°)8.1 mph0.03 inRainLight Rain
11:31 AM35.6 °F33.8 °F93 %29.77 in7.0 miVariable5.8 mph0.02 inOvercast
11:53 AM34.0 °F32.0 °F92 %29.78 in4.0 miNE (40°)4.6 mph0.04 inRainLight Rain
12:07 PM33.8 °F30.2 °F87 %29.76 in1.8 miNNE (30°)4.6 mph0.02 inSnowLight Snow
12:18 PM33.8 °F30.2 °F87 %29.75 in0.8 miNNE (20°)4.6 mph0.03 inSnowLight Snow
12:23 PM32.0 °F30.2 °F93 %29.75 in0.5 miNorth (10°)3.5 mph0.04 inFog-SnowSnow
12:53 PM32.0 °F30.9 °F96 %29.77 in0.2 miNorth (360°)3.5 mph0.09 inFog-SnowHeavy Snow
1:53 PM32.0 °F30.9 °F96 %29.77 in0.5 miNorth (350°)3.5 mph0.05 inFog-SnowLight Snow
2:24 PM30.2 °F28.4 °F93 %29.76 in1.0 miNNW (340°)12.7 mph0.00 inSnowLight Snow
2:31 PM28.4 °F28.4 °F100 %29.76 in1.2 miNNW (340°)13.8 mph0.00 inSnowLight Snow
2:53 PM28.0 °F26.1 °F92 %29.80 in1.8 miNorth (350°)19.6 mph24.2 mph0.00 inSnowLight Snow
3:05 PM26.6 °F24.8 °F93 %29.78 in0.8 miNorth (350°)20.7 mph27.6 mph0.00 inSnowLight Snow
3:53 PM26.1 °F24.1 °F92 %29.87 in0.5 miNNW (340°)18.4 mph28.8 mph0.00 inFog-SnowSnow
4:50 PM21.2 °F17.6 °F86 %29.91 in1.0 miNNW (340°)21.9 mph28.8 mph0.00 inSnowLight Snow
4:53 PM21.9 °F18.0 °F85 %29.94 in1.0 miNNW (340°)18.4 mph28.8 mph0.00 inSnowLight Snow
5:10 PM21.2 °F17.6 °F86 %29.93 in2.0 miNNW (340°)17.3 mph24.2 mph0.00 inSnowLight Snow
5:26 PM21.2 °F17.6 °F86 %29.95 in1.5 miNNW (330°)16.1 mph25.3 mph0.00 inSnowLight Snow
5:36 PM21.2 °F17.6 °F86 %29.96 in2.5 miNNW (340°)17.3 mph24.2 mph0.00 inSnowLight Snow
5:48 PM21.2 °F17.6 °F86 %29.97 in1.2 miNNW (330°)16.1 mph24.2 mph0.00 inSnowLight Snow
5:53 PM21.0 °F17.1 °F85 %30.01 in1.2 miNNW (330°)11.5 mph24.2 mph0.00 inSnowLight Snow
5:56 PM21.2 °F17.6 °F86 %29.98 in1.0 miNNW (330°)10.4 mph24.2 mph0.00 inSnowLight Snow
6:06 PM21.2 °F17.6 °F86 %29.98 in1.0 miNW (310°)12.7 mph18.4 mph0.00 inSnowLight Snow
6:25 PM19.4 °F17.6 °F93 %30.00 in1.0 miNNW (330°)15.0 mph21.9 mph0.00 inSnowLight Snow
6:44 PM19.4 °F17.6 °F93 %30.01 in1.2 miNNW (330°)11.5 mph20.7 mph0.00 inSnowLight Snow
6:53 PM19.9 °F16.0 °F85 %30.04 in1.2 miNNW (330°)16.1 mph21.9 mph0.01 inSnowLight Snow
7:09 PM19.4 °F15.8 °F86 %30.02 in1.0 miNNW (340°)16.1 mph24.2 mph0.00 inSnowLight Snow
7:16 PM19.4 °F15.8 °F86 %30.02 in2.0 miNorth (350°)16.1 mph24.2 mph0.00 inSnowLight Snow
7:30 PM21.2 °F17.6 °F86 %30.03 in1.2 miNNW (330°)13.8 mph0.00 inSnowLight Snow
7:35 PM19.4 °F17.6 °F93 %30.04 in0.8 miNW (320°)12.7 mph0.00 inSnowLight Snow
7:53 PM19.9 °F16.0 °F85 %30.07 in1.0 miNW (320°)13.8 mph20.7 mph0.00 inSnowLight Snow
8:11 PM19.4 °F15.8 °F86 %30.06 in1.5 miNNW (330°)15.0 mph24.2 mph0.00 inSnowLight Snow
8:53 PM19.9 °F16.0 °F85 %30.11 in0.8 miNNW (330°)16.1 mph0.00 inSnowLight Snow
9:04 PM19.4 °F15.8 °F86 %30.09 in1.0 miNNW (330°)15.0 mph23.0 mph0.00 inSnowLight Snow
9:12 PM19.4 °F15.8 °F86 %30.09 in1.5 miNNW (330°)17.3 mph24.2 mph0.00 inSnowLight Snow
9:22 PM19.4 °F15.8 °F86 %30.10 in1.0 miNNW (340°)17.3 mph26.5 mph0.00 inSnowLight Snow
9:37 PM19.4 °F15.8 °F86 %30.10 in1.2 miNW (320°)13.8 mph20.7 mph0.00 inSnowLight Snow
9:53 PM19.0 °F15.1 °F85 %30.14 in1.2 miNNW (330°)15.0 mph25.3 mph0.00 inSnowLight Snow
10:17 PM19.4 °F14.0 °F80 %30.12 in2.0 miNNW (340°)16.1 mph23.0 mph0.00 inSnowLight Snow
10:40 PM19.4 °F15.8 °F86 %30.13 in2.0 miNNW (340°)15.0 mph0.00 inSnowLight Snow
10:50 PM19.4 °F14.0 °F80 %30.14 in1.5 miNNW (340°)15.0 mph23.0 mph0.00 inSnowLight Snow
10:53 PM19.0 °F14.0 °F81 %30.16 in1.5 miNNW (340°)13.8 mph23.0 mph0.00 inSnowLight Snow
11:32 PM17.6 °F14.0 °F86 %30.14 in2.0 miNNW (340°)15.0 mph0.00 inSnowLight Snow
11:38 PM17.6 °F14.0 °F86 %30.14 in3.0 miNNW (330°)13.8 mph0.00 inSnowLight Snow
11:48 PM17.6 °F12.2 °F79 %30.15 in4.0 miNNW (330°)13.8 mph0.00 inSnowLight Snow
11:53 PM18.0 °F12.9 °F81 %30.18 in5.0 miNNW (340°)15.0 mph0.00 inSnowLight Snow
Hourly data recorded from KDKK, located miles away from Chautauqua, New York







STORIES FROM OUR PARTNERS